Flag for West Bank Weather past 2 weeks in Bethlehem, West Bank

Now
61 °F

Scattered clouds.


Feels Like: 61 °F
Forecast: 47 / 63 °F
Wind: 9 mph from Southwest

Location: Ben Gurion International Airport

Current Time: Apr 1, 2015 at 9:09:44 AM

Latest Report: Apr 1, 2015 at 8:20 AM


Visibility: N/A

Pressure: 29.92 "Hg

Humidity: 83%

Dew point: 55 °F

Location of BethlehemLocation

Historic Weather in Bethlehem — Graph

°F

Bethlehem temperature yesterday

Maximum temperature yesterday: 72 °F (at 12:20 PM)
Minimum temperature yesterday: 57 °F (at 1:50 AM)
Average temperature yesterday: 65 °F

Past Weeks' High & Low Weather Summary

 TemperatureHumidityPressure
High90 °F (Mar 27, 1:20 PM)88% (Mar 19, 4:20 AM)30.18 "Hg (Mar 19, 4:20 AM)
Low48 °F (Mar 23, 5:50 AM)17% (Mar 27, 1:20 PM)29.62 "Hg (Mar 28, 4:50 AM)
Average64 °F58%29.98 "Hg
* Reported Mar 17 6:20 AM — Apr 1 7:50 AM, Bethlehem, Weather by CustomWeather, © 2015

Note: Actual official high and low records may vary slightly from our data, if they occured in-between our weather recording intervals... More about our weather records

Advertising

Bethlehem weather history for previous 24 hours

 ConditionsComfort  
Time TempWeatherWind HumidityBarometerVisibility
7:50 AM
Wed, Apr 1
61 °FLight rain. Broken clouds.12 mph83%29.92 "HgN/A
7:20 AM61 °FPartly cloudy.7 mph83%29.89 "HgN/A
6:50 AM61 °FPassing clouds.6 mph77%29.89 "HgN/A
6:20 AM61 °FLight rain. Partly cloudy.7 mph77%29.86 "HgN/A
5:50 AM61 °FLight rain. Passing clouds.10 mph77%29.86 "HgN/A
5:20 AM63 °FPassing clouds.13 mph73%29.86 "HgN/A
4:50 AM63 °FPassing clouds.12 mph73%29.86 "HgN/A
4:20 AM63 °FPassing clouds.8 mph68%29.83 "HgN/A
3:50 AM63 °FPassing clouds.6 mph64%29.83 "HgN/A
3:20 AM61 °FPassing clouds.6 mph68%29.83 "HgN/A
2:50 AM61 °FPassing clouds.9 mph68%29.83 "HgN/A
2:20 AM61 °FPassing clouds.8 mph63%29.83 "HgN/A
1:50 AM63 °FPassing clouds.9 mph59%29.86 "HgN/A
1:20 AM63 °FPassing clouds.9 mph59%29.86 "HgN/A
12:50 AM64 °FPassing clouds.5 mph56%29.86 "HgN/A
12:20 AM64 °FPassing clouds.6 mph52%29.86 "HgN/A
11:50 PM
Tue, Mar 31
64 °FClear.3 mph49%29.86 "Hg10 mi
11:20 PM64 °FClear.5 mph46%29.86 "Hg10 mi
10:50 PM64 °FClear.5 mph46%29.86 "Hg10 mi
10:20 PM66 °FClear.5 mph40%29.83 "Hg10 mi
9:50 PM66 °FClear.5 mph40%29.83 "Hg10 mi
9:20 PM66 °FClear.3 mph40%29.83 "Hg10 mi
8:50 PM66 °FClear.5 mph43%29.83 "Hg10 mi
8:20 PM66 °FClear.6 mph40%29.83 "Hg10 mi
7:50 PM68 °FSunny.6 mph35%29.86 "Hg10 mi
7:20 PM68 °FSunny.8 mph35%29.86 "Hg10 mi
6:50 PM70 °FSunny.1 mph33%29.86 "Hg10 mi
6:20 PM70 °FSunny.1 mph33%29.86 "Hg10 mi
5:50 PM70 °FPassing clouds.6 mph33%29.89 "HgN/A
5:20 PM70 °FPassing clouds.10 mph33%29.89 "HgN/A
4:50 PM72 °FPassing clouds.10 mph33%29.89 "HgN/A
4:20 PM72 °FPassing clouds.12 mph31%29.92 "HgN/A
3:50 PM72 °FPassing clouds.14 mph33%29.92 "HgN/A
3:20 PM70 °FPassing clouds.14 mph38%29.92 "HgN/A
2:50 PM70 °FPassing clouds.14 mph46%29.95 "HgN/A
2:20 PM70 °FScattered clouds.15 mph53%29.95 "HgN/A
1:50 PM72 °FScattered clouds.13 mph50%29.95 "HgN/A
1:20 PM72 °FScattered clouds.10 mph47%29.98 "HgN/A
12:50 PM72 °FScattered clouds.8 mph47%29.98 "HgN/A
12:20 PM72 °FScattered clouds.7 mph47%30.01 "HgN/A
11:50 AM68 °FScattered clouds.9 mph56%30.01 "HgN/A
11:20 AM70 °FScattered clouds.8 mph53%30.01 "HgN/A
10:50 AM68 °FScattered clouds.8 mph53%30.04 "HgN/A
10:20 AM66 °FScattered clouds.8 mph60%30.04 "HgN/A
9:50 AM64 °FScattered clouds.12 mph64%30.04 "HgN/A
9:20 AM64 °FPassing clouds.12 mph68%30.04 "HgN/A
Weather by CustomWeather, © 2015

See weather overviewHow to use our weather pages